Weather History for Minneapolis Flying Cloud, MN

Change the Weather History Date:

Wednesday, January 16, 2013

  Actual Average Record
Temperature  
Mean Temperature 26 °F -  
Max Temperature 37 °F 21 °F 37 °F (1999)
Min Temperature 12 °F 6 °F -25 °F (2009)
Degree Days  
Heating Degree Days 39    
Moisture  
Dew Point 20 °F    
Average Humidity 74    
Maximum Humidity 93    
Minimum Humidity 43    
Precipitation  
Precipitation 0.00 in - - ()
Sea Level Pressure  
Sea Level Pressure 29.85 in    
Wind  
Wind Speed 11 mph (West)    
Max Wind Speed 17 mph    
Max Gust Speed 26 mph    
Visibility 7 miles    
Events Rain , Snow    
Averages and records for this station are not official NWS values.
T = Trace of Precipitation, MM = Missing Value Source: NWS Daily Summary

Daily Weather History Graph

Daily Weather History Graph

Search for Another Location

Airport:

Trip Planner

Search our weather history database for the weather conditions in past years. The results will help you decide how hot, cold, wet, or windy it might be!

Date:

Astronomy

Jan. 16, 2013 Rise Set
Actual Time 7:47 AM CST 5:00 PM CST
Civil Twilight 7:14 AM CST 5:33 PM CST
Nautical Twilight 6:38 AM CST 6:09 PM CST
Astronomical Twilight 6:03 AM CST 6:44 PM CST
Moon 10:07 AM CST (1/16) 11:10 PM CST (1/16)
Length of Visible Light 10h 18m
Length of Day
9h 13m
Waxing Crescent, 28% of the Moon is Illuminated
Jan 16
Waxing Crescent
Jan 18
First Quarter
Jan 26
Full
Feb 3
Last Quarter
Feb 10
New

Hourly Weather History & Observations

Time (CST) Temp. Windchill Dew Point Humidity Pressure Visibility Wind Dir Wind Speed Gust Speed Precip Events Conditions
12:53 AM 24.1 °F 14.4 °F 16.0 °F 71% 29.81 in 10.0 mi SSW 9.2 mph - N/A   Partly Cloudy
2:53 AM 26.1 °F 13.6 °F 17.1 °F 69% 29.74 in 5.0 mi SSW 16.1 mph 24.2 mph 0.00 in Snow Light Snow
3:25 AM 26.6 °F 13.8 °F 17.6 °F 69% 29.69 in 10.0 mi SSW 17.3 mph 24.2 mph 0.00 in   Overcast
3:53 AM 27.0 °F 14.7 °F 19.0 °F 72% 29.70 in 5.0 mi SSW 16.1 mph 25.3 mph 0.00 in   Overcast
4:01 AM 26.6 °F 14.3 °F 19.4 °F 74% 29.67 in 4.0 mi SSW 16.1 mph 26.5 mph 0.00 in Rain Light Freezing Rain
4:53 AM 26.1 °F 15.0 °F 19.9 °F 78% 29.70 in 10.0 mi SW 12.7 mph - 0.00 in   Overcast
5:22 AM 26.6 °F 15.7 °F 21.2 °F 80% 29.65 in 5.0 mi WSW 12.7 mph 19.6 mph N/A   Haze
6:06 AM 28.4 °F 19.1 °F 24.8 °F 86% 29.65 in 3.0 mi WSW 10.4 mph - 0.00 in Snow Light Snow
6:50 AM 28.4 °F 19.1 °F 24.8 °F 86% 29.66 in 9.0 mi WSW 10.4 mph - 0.00 in   Overcast
6:53 AM 28.0 °F 19.3 °F 25.0 °F 88% 29.70 in 9.0 mi SW 9.2 mph - 0.00 in   Overcast
7:53 AM 30.0 °F 23.2 °F 27.0 °F 88% 29.71 in 10.0 mi WSW 6.9 mph - N/A   Overcast
8:14 AM 30.2 °F 24.3 °F 28.4 °F 93% 29.68 in 10.0 mi WSW 5.8 mph - N/A   Overcast
8:53 AM 30.9 °F 25.2 °F 28.9 °F 92% 29.73 in 10.0 mi WSW 5.8 mph - N/A   Overcast
9:38 AM 33.8 °F 27.7 °F 30.2 °F 87% 29.70 in 10.0 mi West 6.9 mph - N/A   Scattered Clouds
9:53 AM 34.0 °F 27.2 °F 30.0 °F 85% 29.74 in 10.0 mi WSW 8.1 mph - N/A   Partly Cloudy
10:53 AM 37.0 °F 29.3 °F 30.0 °F 76% 29.76 in 10.0 mi WNW 11.5 mph - N/A   Clear
11:53 AM 37.0 °F 27.7 °F 25.0 °F 62% 29.78 in 10.0 mi WNW 16.1 mph 23.0 mph N/A   Overcast
1:02 PM 33.8 °F 24.8 °F 26.6 °F 75% 29.78 in 1.8 mi NW 12.7 mph - 0.00 in Snow Light Snow
1:08 PM 32.0 °F 24.8 °F 26.6 °F 80% 29.79 in 3.0 mi WNW 8.1 mph - 0.00 in Snow Light Snow
1:13 PM 32.0 °F 24.2 °F 26.6 °F 80% 29.79 in 1.8 mi WNW 9.2 mph - 0.00 in Snow Light Snow
1:29 PM 30.2 °F 22.6 °F 26.6 °F 86% 29.79 in 1.5 mi WNW 8.1 mph - 0.00 in Snow Light Snow
1:53 PM 30.9 °F 21.7 °F 27.0 °F 85% 29.84 in 1.5 mi WNW 11.5 mph - 0.00 in Snow Light Snow
2:47 PM 28.4 °F 19.1 °F 24.8 °F 86% 29.84 in 3.0 mi NW 10.4 mph - 0.00 in Snow Light Snow
2:48 PM 28.9 °F 19.8 °F 24.1 °F 82% 29.88 in 3.0 mi NW 10.4 mph - 0.00 in Snow Light Snow
2:55 PM 28.4 °F 18.0 °F 24.8 °F 86% 29.85 in 7.0 mi NW 12.7 mph - 0.00 in Snow Light Snow
3:09 PM 28.4 °F 18.5 °F 23.0 °F 80% 29.85 in 2.0 mi NNW 11.5 mph - 0.00 in Snow Light Snow
3:17 PM 28.4 °F 19.1 °F 23.0 °F 80% 29.86 in 6.0 mi NW 10.4 mph - 0.00 in Snow Light Snow
3:53 PM 28.9 °F 17.7 °F 21.0 °F 72% 29.94 in 10.0 mi NW 15.0 mph - 0.00 in   Overcast
4:53 PM 28.0 °F 18.1 °F 14.0 °F 56% 29.99 in 10.0 mi NW 11.5 mph 19.6 mph N/A   Clear
5:53 PM 25.0 °F 14.2 °F 5.0 °F 43% 30.03 in 10.0 mi NNW 11.5 mph 21.9 mph N/A   Clear
6:53 PM 23.0 °F 11.7 °F 3.9 °F 44% 30.11 in 10.0 mi NNW 11.5 mph - N/A   Clear
7:53 PM 21.0 °F 9.9 °F 3.9 °F 48% 30.15 in 10.0 mi NNW 10.4 mph - N/A   Clear
8:53 PM 19.0 °F 10.0 °F 5.0 °F 54% 30.17 in 10.0 mi WNW 6.9 mph - N/A   Clear
9:53 PM 17.1 °F 5.0 °F 5.0 °F 59% 30.20 in 10.0 mi WNW 10.4 mph - N/A   Clear
10:53 PM 15.1 °F 2.5 °F 3.0 °F 59% 30.24 in 10.0 mi WNW 10.4 mph - N/A   Clear
11:53 PM 12.9 °F 0.7 °F -0.0 °F 56% 30.25 in 10.0 mi NNW 9.2 mph - N/A   Clear